Year,Month,Day,Hour,Minute,Value (Times are PST for insolation in W/m^2)
2017,06,01,00,00,0.00
2017,06,01,00,01,0.00
2017,06,01,00,02,0.00
2017,06,01,00,03,0.00
2017,06,01,00,04,0.00
2017,06,01,00,05,0.00
2017,06,01,00,06,0.00
2017,06,01,00,07,0.00
2017,06,01,00,08,0.00
2017,06,01,00,09,0.00
2017,06,01,00,10,0.00
2017,06,01,00,11,0.00
2017,06,01,00,12,0.00
2017,06,01,00,13,0.00
2017,06,01,00,14,0.00
2017,06,01,00,15,0.00
2017,06,01,00,16,0.00
2017,06,01,00,17,0.00
2017,06,01,00,18,0.00
2017,06,01,00,19,0.00
2017,06,01,00,20,0.00
2017,06,01,00,21,0.00
2017,06,01,00,22,0.00
2017,06,01,00,23,0.00
2017,06,01,00,24,0.00
2017,06,01,00,25,0.00
2017,06,01,00,26,0.00
2017,06,01,00,27,0.00
2017,06,01,00,28,0.00
2017,06,01,00,29,0.00
2017,06,01,00,30,0.00
2017,06,01,00,31,0.00
2017,06,01,00,32,0.00
2017,06,01,00,33,0.00
2017,06,01,00,34,0.00
2017,06,01,00,35,0.00
2017,06,01,00,36,0.00
2017,06,01,00,37,0.00
2017,06,01,00,38,0.00
2017,06,01,00,39,0.00
2017,06,01,00,40,0.00
2017,06,01,00,41,0.00
2017,06,01,00,42,0.00
2017,06,01,00,43,0.00
2017,06,01,00,44,0.00
2017,06,01,00,45,0.00
2017,06,01,00,46,0.00
2017,06,01,00,47,0.00
2017,06,01,00,48,0.00
2017,06,01,00,49,0.00
2017,06,01,00,50,0.00
2017,06,01,00,51,0.00
2017,06,01,00,52,0.00
2017,06,01,00,53,0.00
2017,06,01,00,54,0.00
2017,06,01,00,55,0.00
2017,06,01,00,56,0.00
2017,06,01,00,57,0.00
2017,06,01,00,58,0.00
2017,06,01,00,59,0.00
2017,06,01,01,00,0.00
2017,06,01,01,01,0.00
2017,06,01,01,02,0.00
2017,06,01,01,03,0.00
2017,06,01,01,04,0.00
2017,06,01,01,05,0.00
2017,06,01,01,06,0.00
2017,06,01,01,07,0.00
2017,06,01,01,08,0.00
2017,06,01,01,09,0.00
2017,06,01,01,10,0.00
2017,06,01,01,11,0.00
2017,06,01,01,12,0.00
2017,06,01,01,13,0.00
2017,06,01,01,14,0.00
2017,06,01,01,15,0.00
2017,06,01,01,16,0.00
2017,06,01,01,17,0.00
2017,06,01,01,18,0.00
2017,06,01,01,19,0.00
2017,06,01,01,20,0.00
2017,06,01,01,21,0.00
2017,06,01,01,22,0.00
2017,06,01,01,23,0.00
2017,06,01,01,24,0.00
2017,06,01,01,25,0.00
2017,06,01,01,26,0.00
2017,06,01,01,27,0.00
2017,06,01,01,28,0.00
2017,06,01,01,29,0.00
2017,06,01,01,30,0.00
2017,06,01,01,31,0.00
2017,06,01,01,32,0.00
2017,06,01,01,33,0.00
2017,06,01,01,34,0.00
2017,06,01,01,35,0.00
2017,06,01,01,36,0.00
2017,06,01,01,37,0.00
2017,06,01,01,38,0.00
2017,06,01,01,39,0.00
2017,06,01,01,40,0.00
2017,06,01,01,41,0.00
2017,06,01,01,42,0.00
2017,06,01,01,43,0.00
2017,06,01,01,44,0.00
2017,06,01,01,45,0.00
2017,06,01,01,46,0.00
2017,06,01,01,47,0.00
2017,06,01,01,48,0.00
2017,06,01,01,49,0.00
2017,06,01,01,50,0.00
2017,06,01,01,51,0.00
2017,06,01,01,52,0.00
2017,06,01,01,53,0.00
2017,06,01,01,54,0.00
2017,06,01,01,55,0.00
2017,06,01,01,56,0.00
2017,06,01,01,57,0.00
2017,06,01,01,58,0.00
2017,06,01,01,59,0.00
2017,06,01,02,00,0.00
2017,06,01,02,01,0.00
2017,06,01,02,02,0.00
2017,06,01,02,03,0.00
2017,06,01,02,04,0.00
2017,06,01,02,05,0.00
2017,06,01,02,06,0.00
2017,06,01,02,07,0.00
2017,06,01,02,08,0.00
2017,06,01,02,09,0.00
2017,06,01,02,10,0.00
2017,06,01,02,11,0.00
2017,06,01,02,12,0.00
2017,06,01,02,13,0.00
2017,06,01,02,14,0.00
2017,06,01,02,15,0.00
2017,06,01,02,16,0.00
2017,06,01,02,17,0.00
2017,06,01,02,18,0.00
2017,06,01,02,19,0.00
2017,06,01,02,20,0.00
2017,06,01,02,21,0.00
2017,06,01,02,22,0.00
2017,06,01,02,23,0.00
2017,06,01,02,24,0.00
2017,06,01,02,25,0.00
2017,06,01,02,26,0.00
2017,06,01,02,27,0.00
2017,06,01,02,28,0.00
2017,06,01,02,29,0.00
2017,06,01,02,30,0.00
2017,06,01,02,31,0.00
2017,06,01,02,32,0.00
2017,06,01,02,33,0.00
2017,06,01,02,34,0.00
2017,06,01,02,35,0.00
2017,06,01,02,36,0.00
2017,06,01,02,37,0.00
2017,06,01,02,38,0.00
2017,06,01,02,39,0.00
2017,06,01,02,40,0.00
2017,06,01,02,41,0.00
2017,06,01,02,42,0.00
2017,06,01,02,43,0.00
2017,06,01,02,44,0.00
2017,06,01,02,45,0.00
2017,06,01,02,46,0.00
2017,06,01,02,47,0.00
2017,06,01,02,48,0.00
2017,06,01,02,49,0.00
2017,06,01,02,50,0.00
2017,06,01,02,51,0.00
2017,06,01,02,52,0.00
2017,06,01,02,53,0.00
2017,06,01,02,54,0.00
2017,06,01,02,55,0.00
2017,06,01,02,56,0.00
2017,06,01,02,57,0.00
2017,06,01,02,58,0.00
2017,06,01,02,59,0.00
2017,06,01,03,00,0.00
2017,06,01,03,01,0.00
2017,06,01,03,02,0.00
2017,06,01,03,03,0.00
2017,06,01,03,04,0.00
2017,06,01,03,05,0.00
2017,06,01,03,06,0.00
2017,06,01,03,07,0.00
2017,06,01,03,08,0.00
2017,06,01,03,09,0.00
2017,06,01,03,10,0.00
2017,06,01,03,11,0.00
2017,06,01,03,12,0.00
2017,06,01,03,13,0.00
2017,06,01,03,14,0.00
2017,06,01,03,15,0.00
2017,06,01,03,16,0.00
2017,06,01,03,17,0.00
2017,06,01,03,18,0.00
2017,06,01,03,19,0.00
2017,06,01,03,20,0.00
2017,06,01,03,21,0.00
2017,06,01,03,22,0.00
2017,06,01,03,23,0.00
2017,06,01,03,24,0.00
2017,06,01,03,25,0.00
2017,06,01,03,26,0.00
2017,06,01,03,27,0.00
2017,06,01,03,28,0.00
2017,06,01,03,29,0.00
2017,06,01,03,30,0.00
2017,06,01,03,31,0.00
2017,06,01,03,32,0.00
2017,06,01,03,33,0.00
2017,06,01,03,34,0.00
2017,06,01,03,35,0.00
2017,06,01,03,36,0.00
2017,06,01,03,37,0.00
2017,06,01,03,38,0.00
2017,06,01,03,39,0.00
2017,06,01,03,40,0.00
2017,06,01,03,41,0.00
2017,06,01,03,42,0.00
2017,06,01,03,43,0.00
2017,06,01,03,44,0.00
2017,06,01,03,45,0.00
2017,06,01,03,46,0.00
2017,06,01,03,47,0.00
2017,06,01,03,48,0.00
2017,06,01,03,49,0.00
2017,06,01,03,50,0.00
2017,06,01,03,51,0.00
2017,06,01,03,52,0.00
2017,06,01,03,53,0.00
2017,06,01,03,54,0.00
2017,06,01,03,55,0.00
2017,06,01,03,56,0.00
2017,06,01,03,57,0.00
2017,06,01,03,58,0.00
2017,06,01,03,59,0.00
2017,06,01,04,00,0.00
2017,06,01,04,01,0.00
2017,06,01,04,02,0.00
2017,06,01,04,03,0.00
2017,06,01,04,04,0.00
2017,06,01,04,05,0.00
2017,06,01,04,06,0.00
2017,06,01,04,07,0.00
2017,06,01,04,08,0.00
2017,06,01,04,09,0.00
2017,06,01,04,10,0.00
2017,06,01,04,11,0.00
2017,06,01,04,12,0.00
2017,06,01,04,13,0.00
2017,06,01,04,14,0.00
2017,06,01,04,15,0.00
2017,06,01,04,16,0.00
2017,06,01,04,17,0.00
2017,06,01,04,18,0.00
2017,06,01,04,19,0.00
2017,06,01,04,20,0.00
2017,06,01,04,21,0.00
2017,06,01,04,22,0.00
2017,06,01,04,23,0.00
2017,06,01,04,24,0.00
2017,06,01,04,25,0.00
2017,06,01,04,26,0.00
2017,06,01,04,27,0.00
2017,06,01,04,28,0.00
2017,06,01,04,29,0.00
2017,06,01,04,30,0.00
2017,06,01,04,31,0.00
2017,06,01,04,32,0.00
2017,06,01,04,33,0.00
2017,06,01,04,34,0.00
2017,06,01,04,35,0.00
2017,06,01,04,36,0.00
2017,06,01,04,37,0.00
2017,06,01,04,38,0.00
2017,06,01,04,39,0.00
2017,06,01,04,40,0.00
2017,06,01,04,41,0.00
2017,06,01,04,42,0.00
2017,06,01,04,43,0.00
2017,06,01,04,44,0.00
2017,06,01,04,45,0.00
2017,06,01,04,46,0.00
2017,06,01,04,47,0.00
2017,06,01,04,48,0.00
2017,06,01,04,49,0.00
2017,06,01,04,50,0.00
2017,06,01,04,51,0.00
2017,06,01,04,52,0.00
2017,06,01,04,53,0.00
2017,06,01,04,54,0.00
2017,06,01,04,55,0.00
2017,06,01,04,56,0.00
2017,06,01,04,57,0.00
2017,06,01,04,58,0.00
2017,06,01,04,59,0.00
2017,06,01,05,00,0.00
2017,06,01,05,01,0.00
2017,06,01,05,02,0.00
2017,06,01,05,03,0.00
2017,06,01,05,04,0.00
2017,06,01,05,05,0.00
2017,06,01,05,06,0.00
2017,06,01,05,07,0.00
2017,06,01,05,08,0.00
2017,06,01,05,09,0.00
2017,06,01,05,10,0.00
2017,06,01,05,11,0.00
2017,06,01,05,12,0.00
2017,06,01,05,13,0.00
2017,06,01,05,14,0.00
2017,06,01,05,15,0.00
2017,06,01,05,16,0.00
2017,06,01,05,17,0.00
2017,06,01,05,18,0.00
2017,06,01,05,19,0.00
2017,06,01,05,20,0.00
2017,06,01,05,21,0.00
2017,06,01,05,22,0.00
2017,06,01,05,23,0.00
2017,06,01,05,24,0.00
2017,06,01,05,25,0.00
2017,06,01,05,26,0.00
2017,06,01,05,27,5.00
2017,06,01,05,28,5.00
2017,06,01,05,29,5.00
2017,06,01,05,30,5.00
2017,06,01,05,31,5.00
2017,06,01,05,32,5.00
2017,06,01,05,33,5.00
2017,06,01,05,34,7.00
2017,06,01,05,35,9.00
2017,06,01,05,36,9.00
2017,06,01,05,37,10.40
2017,06,01,05,38,11.80
2017,06,01,05,39,12.00
2017,06,01,05,40,13.80
2017,06,01,05,41,14.00
2017,06,01,05,42,16.00
2017,06,01,05,43,16.00
2017,06,01,05,44,16.00
2017,06,01,05,45,16.80
2017,06,01,05,46,19.00
2017,06,01,05,47,19.80
2017,06,01,05,48,21.90
2017,06,01,05,49,24.00
2017,06,01,05,50,25.50
2017,06,01,05,51,26.00
2017,06,01,05,52,27.40
2017,06,01,05,53,28.00
2017,06,01,05,54,28.00
2017,06,01,05,55,28.00
2017,06,01,05,56,28.00
2017,06,01,05,57,35.20
2017,06,01,05,58,37.00
2017,06,01,05,59,37.40
2017,06,01,06,00,39.30
2017,06,01,06,01,40.60
2017,06,01,06,02,42.00
2017,06,01,06,03,42.90
2017,06,01,06,04,44.00
2017,06,01,06,05,44.00
2017,06,01,06,06,44.00
2017,06,01,06,07,46.00
2017,06,01,06,08,48.50
2017,06,01,06,09,50.60
2017,06,01,06,10,51.00
2017,06,01,06,11,52.90
2017,06,01,06,12,53.00
2017,06,01,06,13,53.10
2017,06,01,06,14,54.00
2017,06,01,06,15,54.50
2017,06,01,06,16,56.00
2017,06,01,06,17,56.00
2017,06,01,06,18,56.00
2017,06,01,06,19,56.00
2017,06,01,06,20,56.00
2017,06,01,06,21,56.00
2017,06,01,06,22,56.00
2017,06,01,06,23,56.00
2017,06,01,06,24,56.00
2017,06,01,06,25,53.30
2017,06,01,06,26,51.20
2017,06,01,06,27,46.90
2017,06,01,06,28,46.00
2017,06,01,06,29,44.50
2017,06,01,06,30,38.50
2017,06,01,06,31,37.00
2017,06,01,06,32,38.10
2017,06,01,06,33,40.90
2017,06,01,06,34,42.00
2017,06,01,06,35,42.00
2017,06,01,06,36,40.70
2017,06,01,06,37,37.90
2017,06,01,06,38,35.40
2017,06,01,06,39,33.30
2017,06,01,06,40,33.00
2017,06,01,06,41,33.00
2017,06,01,06,42,33.30
2017,06,01,06,43,39.00
2017,06,01,06,44,39.20
2017,06,01,06,45,40.00
2017,06,01,06,46,40.00
2017,06,01,06,47,39.60
2017,06,01,06,48,39.00
2017,06,01,06,49,39.00
2017,06,01,06,50,39.00
2017,06,01,06,51,39.70
2017,06,01,06,52,39.30
2017,06,01,06,53,39.00
2017,06,01,06,54,39.00
2017,06,01,06,55,37.20
2017,06,01,06,56,37.00
2017,06,01,06,57,37.00
2017,06,01,06,58,37.20
2017,06,01,06,59,39.20
2017,06,01,07,00,40.00
2017,06,01,07,01,41.30
2017,06,01,07,02,44.80
2017,06,01,07,03,46.00
2017,06,01,07,04,46.00
2017,06,01,07,05,46.00
2017,06,01,07,06,46.00
2017,06,01,07,07,46.00
2017,06,01,07,08,49.70
2017,06,01,07,09,51.00
2017,06,01,07,10,57.00
2017,06,01,07,11,62.70
2017,06,01,07,12,63.70
2017,06,01,07,13,76.70
2017,06,01,07,14,82.00
2017,06,01,07,15,87.30
2017,06,01,07,16,91.00
2017,06,01,07,17,95.20
2017,06,01,07,18,103.30
2017,06,01,07,19,107.00
2017,06,01,07,20,109.00
2017,06,01,07,21,112.20
2017,06,01,07,22,114.00
2017,06,01,07,23,118.70
2017,06,01,07,24,120.80
2017,06,01,07,25,121.00
2017,06,01,07,26,116.30
2017,06,01,07,27,113.00
2017,06,01,07,28,113.00
2017,06,01,07,29,114.40
2017,06,01,07,30,120.00
2017,06,01,07,31,120.00
2017,06,01,07,32,127.30
2017,06,01,07,33,143.20
2017,06,01,07,34,146.00
2017,06,01,07,35,150.00
2017,06,01,07,36,154.20
2017,06,01,07,37,157.10
2017,06,01,07,38,159.50
2017,06,01,07,39,156.00
2017,06,01,07,40,145.60
2017,06,01,07,41,144.00
2017,06,01,07,42,142.00
2017,06,01,07,43,122.70
2017,06,01,07,44,120.40
2017,06,01,07,45,118.00
2017,06,01,07,46,118.00
2017,06,01,07,47,121.30
2017,06,01,07,48,127.00
2017,06,01,07,49,127.00
2017,06,01,07,50,134.90
2017,06,01,07,51,142.00
2017,06,01,07,52,143.40
2017,06,01,07,53,144.00
2017,06,01,07,54,144.00
2017,06,01,07,55,144.00
2017,06,01,07,56,135.90
2017,06,01,07,57,135.30
2017,06,01,07,58,141.00
2017,06,01,07,59,141.00
2017,06,01,08,00,144.90
2017,06,01,08,01,156.00
2017,06,01,08,02,162.40
2017,06,01,08,03,174.90
2017,06,01,08,04,179.00
2017,06,01,08,05,182.60
2017,06,01,08,06,186.90
2017,06,01,08,07,190.60
2017,06,01,08,08,192.80
2017,06,01,08,09,194.60
2017,06,01,08,10,195.00
2017,06,01,08,11,195.00
2017,06,01,08,12,206.40
2017,06,01,08,13,207.00
2017,06,01,08,14,207.30
2017,06,01,08,15,209.50
2017,06,01,08,16,211.90
2017,06,01,08,17,214.70
2017,06,01,08,18,216.00
2017,06,01,08,19,216.00
2017,06,01,08,20,247.90
2017,06,01,08,21,274.00
2017,06,01,08,22,274.00
2017,06,01,08,23,289.80
2017,06,01,08,24,320.30
2017,06,01,08,25,325.00
2017,06,01,08,26,347.50
2017,06,01,08,27,317.70
2017,06,01,08,28,316.00
2017,06,01,08,29,344.10
2017,06,01,08,30,479.50
2017,06,01,08,31,439.00
2017,06,01,08,32,420.50
2017,06,01,08,33,350.70
2017,06,01,08,34,320.00
2017,06,01,08,35,359.60
2017,06,01,08,36,376.40
2017,06,01,08,37,327.50
2017,06,01,08,38,349.20
2017,06,01,08,39,363.70
2017,06,01,08,40,359.80
2017,06,01,08,41,309.50
2017,06,01,08,42,285.00
2017,06,01,08,43,282.90
2017,06,01,08,44,264.00
2017,06,01,08,45,255.20
2017,06,01,08,46,229.00
2017,06,01,08,47,229.00
2017,06,01,08,48,224.90
2017,06,01,08,49,220.00
2017,06,01,08,50,192.60
2017,06,01,08,51,168.80
2017,06,01,08,52,162.10
2017,06,01,08,53,154.80
2017,06,01,08,54,158.90
2017,06,01,08,55,160.00
2017,06,01,08,56,199.80
2017,06,01,08,57,202.00
2017,06,01,08,58,206.90
2017,06,01,08,59,236.00
2017,06,01,09,00,237.80
2017,06,01,09,01,243.00
2017,06,01,09,02,252.90
2017,06,01,09,03,261.00
2017,06,01,09,04,246.50
2017,06,01,09,05,243.00
2017,06,01,09,06,243.00
2017,06,01,09,07,225.50
2017,06,01,09,08,214.20
2017,06,01,09,09,207.40
2017,06,01,09,10,198.30
2017,06,01,09,11,190.40
2017,06,01,09,12,181.00
2017,06,01,09,13,180.10
2017,06,01,09,14,172.00
2017,06,01,09,15,172.50
2017,06,01,09,16,175.50
2017,06,01,09,17,181.80
2017,06,01,09,18,190.30
2017,06,01,09,19,198.30
2017,06,01,09,20,202.00
2017,06,01,09,21,202.00
2017,06,01,09,22,208.00
2017,06,01,09,23,213.40
2017,06,01,09,24,215.60
2017,06,01,09,25,220.20
2017,06,01,09,26,222.90
2017,06,01,09,27,227.00
2017,06,01,09,28,228.20
2017,06,01,09,29,239.00
2017,06,01,09,30,239.00
2017,06,01,09,31,233.30
2017,06,01,09,32,215.00
2017,06,01,09,33,201.90
2017,06,01,09,34,194.80
2017,06,01,09,35,192.40
2017,06,01,09,36,195.20
2017,06,01,09,37,208.60
2017,06,01,09,38,235.80
2017,06,01,09,39,279.00
2017,06,01,09,40,317.80
2017,06,01,09,41,323.00
2017,06,01,09,42,368.50
2017,06,01,09,43,409.90
2017,06,01,09,44,474.00
2017,06,01,09,45,432.20
2017,06,01,09,46,409.30
2017,06,01,09,47,379.60
2017,06,01,09,48,366.70
2017,06,01,09,49,364.00
2017,06,01,09,50,344.80
2017,06,01,09,51,339.80
2017,06,01,09,52,343.50
2017,06,01,09,53,352.80
2017,06,01,09,54,353.40
2017,06,01,09,55,347.00
2017,06,01,09,56,336.50
2017,06,01,09,57,321.80
2017,06,01,09,58,311.00
2017,06,01,09,59,308.90
2017,06,01,10,00,300.50
2017,06,01,10,01,299.00
2017,06,01,10,02,301.00
2017,06,01,10,03,308.00
2017,06,01,10,04,318.00
2017,06,01,10,05,328.20
2017,06,01,10,06,335.60
2017,06,01,10,07,338.70
2017,06,01,10,08,345.80
2017,06,01,10,09,348.00
2017,06,01,10,10,367.50
2017,06,01,10,11,384.30
2017,06,01,10,12,411.00
2017,06,01,10,13,422.70
2017,06,01,10,14,489.60
2017,06,01,10,15,498.80
2017,06,01,10,16,505.40
2017,06,01,10,17,465.10
2017,06,01,10,18,445.00
2017,06,01,10,19,445.00
2017,06,01,10,20,445.00
2017,06,01,10,21,537.40
2017,06,01,10,22,599.00
2017,06,01,10,23,636.50
2017,06,01,10,24,586.70
2017,06,01,10,25,640.50
2017,06,01,10,26,591.70
2017,06,01,10,27,581.30
2017,06,01,10,28,610.30
2017,06,01,10,29,636.00
2017,06,01,10,30,570.50
2017,06,01,10,31,376.50
2017,06,01,10,32,339.80
2017,06,01,10,33,320.00
2017,06,01,10,34,311.60
2017,06,01,10,35,308.20
2017,06,01,10,36,309.80
2017,06,01,10,37,300.60
2017,06,01,10,38,288.00
2017,06,01,10,39,279.00
2017,06,01,10,40,268.10
2017,06,01,10,41,267.00
2017,06,01,10,42,264.80
2017,06,01,10,43,222.30
2017,06,01,10,44,216.40
2017,06,01,10,45,220.80
2017,06,01,10,46,229.00
2017,06,01,10,47,258.20
2017,06,01,10,48,288.50
2017,06,01,10,49,273.00
2017,06,01,10,50,276.80
2017,06,01,10,51,275.80
2017,06,01,10,52,270.50
2017,06,01,10,53,269.00
2017,06,01,10,54,269.00
2017,06,01,10,55,269.00
2017,06,01,10,56,242.40
2017,06,01,10,57,238.40
2017,06,01,10,58,188.60
2017,06,01,10,59,181.00
2017,06,01,11,00,182.00
2017,06,01,11,01,188.00
2017,06,01,11,02,199.90
2017,06,01,11,03,213.90
2017,06,01,11,04,221.50
2017,06,01,11,05,228.40
2017,06,01,11,06,232.00
2017,06,01,11,07,232.00
2017,06,01,11,08,233.60
2017,06,01,11,09,234.00
2017,06,01,11,10,234.00
2017,06,01,11,11,215.00
2017,06,01,11,12,201.20
2017,06,01,11,13,184.20
2017,06,01,11,14,173.40
2017,06,01,11,15,171.00
2017,06,01,11,16,171.90
2017,06,01,11,17,174.80
2017,06,01,11,18,176.00
2017,06,01,11,19,175.00
2017,06,01,11,20,172.30
2017,06,01,11,21,171.00
2017,06,01,11,22,168.10
2017,06,01,11,23,163.10
2017,06,01,11,24,158.80
2017,06,01,11,25,158.00
2017,06,01,11,26,158.00
2017,06,01,11,27,152.80
2017,06,01,11,28,148.00
2017,06,01,11,29,148.00
2017,06,01,11,30,147.50
2017,06,01,11,31,146.70
2017,06,01,11,32,149.10
2017,06,01,11,33,155.40
2017,06,01,11,34,162.00
2017,06,01,11,35,187.90
2017,06,01,11,36,231.20
2017,06,01,11,37,253.80
2017,06,01,11,38,258.00
2017,06,01,11,39,257.20
2017,06,01,11,40,259.50
2017,06,01,11,41,264.50
2017,06,01,11,42,275.00
2017,06,01,11,43,299.10
2017,06,01,11,44,336.00
2017,06,01,11,45,348.20
2017,06,01,11,46,390.70
2017,06,01,11,47,406.40
2017,06,01,11,48,403.40
2017,06,01,11,49,390.50
2017,06,01,11,50,376.90
2017,06,01,11,51,359.60
2017,06,01,11,52,338.70
2017,06,01,11,53,318.60
2017,06,01,11,54,315.00
2017,06,01,11,55,295.50
2017,06,01,11,56,292.00
2017,06,01,11,57,291.80
2017,06,01,11,58,287.90
2017,06,01,11,59,287.00
2017,06,01,12,00,287.30
2017,06,01,12,01,288.60
2017,06,01,12,02,287.50
2017,06,01,12,03,279.00
2017,06,01,12,04,270.50
2017,06,01,12,05,262.90
2017,06,01,12,06,254.00
2017,06,01,12,07,244.00
2017,06,01,12,08,237.10
2017,06,01,12,09,231.20
2017,06,01,12,10,224.10
2017,06,01,12,11,215.90
2017,06,01,12,12,207.00
2017,06,01,12,13,204.10
2017,06,01,12,14,186.60
2017,06,01,12,15,179.80
2017,06,01,12,16,176.00
2017,06,01,12,17,176.00
2017,06,01,12,18,176.00
2017,06,01,12,19,182.00
2017,06,01,12,20,192.10
2017,06,01,12,21,199.20
2017,06,01,12,22,202.00
2017,06,01,12,23,205.80
2017,06,01,12,24,207.00
2017,06,01,12,25,206.10
2017,06,01,12,26,206.00
2017,06,01,12,27,206.00
2017,06,01,12,28,204.80
2017,06,01,12,29,193.50
2017,06,01,12,30,182.80
2017,06,01,12,31,173.90
2017,06,01,12,32,169.00
2017,06,01,12,33,169.00
2017,06,01,12,34,171.40
2017,06,01,12,35,177.90
2017,06,01,12,36,185.20
2017,06,01,12,37,192.60
2017,06,01,12,38,200.20
2017,06,01,12,39,209.20
2017,06,01,12,40,211.00
2017,06,01,12,41,211.00
2017,06,01,12,42,211.00
2017,06,01,12,43,213.70
2017,06,01,12,44,226.70
2017,06,01,12,45,218.00
2017,06,01,12,46,218.00
2017,06,01,12,47,204.80
2017,06,01,12,48,185.00
2017,06,01,12,49,178.50
2017,06,01,12,50,171.40
2017,06,01,12,51,169.80
2017,06,01,12,52,169.00
2017,06,01,12,53,162.20
2017,06,01,12,54,152.80
2017,06,01,12,55,146.80
2017,06,01,12,56,142.40
2017,06,01,12,57,146.00
2017,06,01,12,58,149.00
2017,06,01,12,59,183.20
2017,06,01,13,00,211.50
2017,06,01,13,01,240.30
2017,06,01,13,02,259.80
2017,06,01,13,03,268.80
2017,06,01,13,04,271.00
2017,06,01,13,05,271.00
2017,06,01,13,06,271.00
2017,06,01,13,07,231.10
2017,06,01,13,08,203.50
2017,06,01,13,09,192.00
2017,06,01,13,10,190.00
2017,06,01,13,11,171.90
2017,06,01,13,12,161.60
2017,06,01,13,13,155.00
2017,06,01,13,14,155.20
2017,06,01,13,15,158.20
2017,06,01,13,16,169.20
2017,06,01,13,17,185.40
2017,06,01,13,18,204.00
2017,06,01,13,19,223.40
2017,06,01,13,20,232.00
2017,06,01,13,21,263.80
2017,06,01,13,22,303.60
2017,06,01,13,23,326.00
2017,06,01,13,24,342.00
2017,06,01,13,25,363.90
2017,06,01,13,26,414.50
2017,06,01,13,27,417.00
2017,06,01,13,28,424.70
2017,06,01,13,29,494.00
2017,06,01,13,30,501.00
2017,06,01,13,31,525.80
2017,06,01,13,32,528.20
2017,06,01,13,33,522.60
2017,06,01,13,34,526.00
2017,06,01,13,35,513.90
2017,06,01,13,36,552.10
2017,06,01,13,37,517.80
2017,06,01,13,38,469.00
2017,06,01,13,39,452.40
2017,06,01,13,40,443.70
2017,06,01,13,41,423.00
2017,06,01,13,42,415.20
2017,06,01,13,43,421.80
2017,06,01,13,44,434.80
2017,06,01,13,45,451.80
2017,06,01,13,46,477.90
2017,06,01,13,47,501.00
2017,06,01,13,48,501.00
2017,06,01,13,49,501.00
2017,06,01,13,50,501.00
2017,06,01,13,51,987.00
2017,06,01,13,52,1311.00
2017,06,01,13,53,1311.00
2017,06,01,13,54,1311.00
2017,06,01,13,55,1311.00
2017,06,01,13,56,516.80
2017,06,01,13,57,479.20
2017,06,01,13,58,507.20
2017,06,01,13,59,455.30
2017,06,01,14,00,458.50
2017,06,01,14,01,411.70
2017,06,01,14,02,404.80
2017,06,01,14,03,408.90
2017,06,01,14,04,419.00
2017,06,01,14,05,437.00
2017,06,01,14,06,445.40
2017,06,01,14,07,445.00
2017,06,01,14,08,445.00
2017,06,01,14,09,445.00
2017,06,01,14,10,405.90
2017,06,01,14,11,434.10
2017,06,01,14,12,527.00
2017,06,01,14,13,527.00
2017,06,01,14,14,527.00
2017,06,01,14,15,527.50
2017,06,01,14,16,529.00
2017,06,01,14,17,529.00
2017,06,01,14,18,529.00
2017,06,01,14,19,502.50
2017,06,01,14,20,484.40
2017,06,01,14,21,518.00
2017,06,01,14,22,533.00
2017,06,01,14,23,533.00
2017,06,01,14,24,565.00
2017,06,01,14,25,489.70
2017,06,01,14,26,440.80
2017,06,01,14,27,380.80
2017,06,01,14,28,336.40
2017,06,01,14,29,309.20
2017,06,01,14,30,282.00
2017,06,01,14,31,258.00
2017,06,01,14,32,238.40
2017,06,01,14,33,225.50
2017,06,01,14,34,217.00
2017,06,01,14,35,214.00
2017,06,01,14,36,214.00
2017,06,01,14,37,209.00
2017,06,01,14,38,203.20
2017,06,01,14,39,200.40
2017,06,01,14,40,200.00
2017,06,01,14,41,200.00
2017,06,01,14,42,203.90
2017,06,01,14,43,201.70
2017,06,01,14,44,199.20
2017,06,01,14,45,195.00
2017,06,01,14,46,193.90
2017,06,01,14,47,191.20
2017,06,01,14,48,189.10
2017,06,01,14,49,188.00
2017,06,01,14,50,186.80
2017,06,01,14,51,189.60
2017,06,01,14,52,199.00
2017,06,01,14,53,212.30
2017,06,01,14,54,226.40
2017,06,01,14,55,238.00
2017,06,01,14,56,239.70
2017,06,01,14,57,253.60
2017,06,01,14,58,265.70
2017,06,01,14,59,277.40
2017,06,01,15,00,286.70
2017,06,01,15,01,294.20
2017,06,01,15,02,299.00
2017,06,01,15,03,305.90
2017,06,01,15,04,315.00
2017,06,01,15,05,315.00
2017,06,01,15,06,341.40
2017,06,01,15,07,378.60
2017,06,01,15,08,409.50
2017,06,01,15,09,436.20
2017,06,01,15,10,464.00
2017,06,01,15,11,482.20
2017,06,01,15,12,482.80
2017,06,01,15,13,476.20
2017,06,01,15,14,465.00
2017,06,01,15,15,461.80
2017,06,01,15,16,467.30
2017,06,01,15,17,480.30
2017,06,01,15,18,491.20
2017,06,01,15,19,496.50
2017,06,01,15,20,501.30
2017,06,01,15,21,503.60
2017,06,01,15,22,506.80
2017,06,01,15,23,514.80
2017,06,01,15,24,524.20
2017,06,01,15,25,570.10
2017,06,01,15,26,590.20
2017,06,01,15,27,625.30
2017,06,01,15,28,609.30
2017,06,01,15,29,596.20
2017,06,01,15,30,638.50
2017,06,01,15,31,607.30
2017,06,01,15,32,584.00
2017,06,01,15,33,592.50
2017,06,01,15,34,597.50
2017,06,01,15,35,587.20
2017,06,01,15,36,566.90
2017,06,01,15,37,576.60
2017,06,01,15,38,561.80
2017,06,01,15,39,541.20
2017,06,01,15,40,555.80
2017,06,01,15,41,594.20
2017,06,01,15,42,677.00
2017,06,01,15,43,677.00
2017,06,01,15,44,677.00
2017,06,01,15,45,703.80
2017,06,01,15,46,779.00
2017,06,01,15,47,779.00
2017,06,01,15,48,813.70
2017,06,01,15,49,853.20
2017,06,01,15,50,827.30
2017,06,01,15,51,756.60
2017,06,01,15,52,721.00
2017,06,01,15,53,574.40
2017,06,01,15,54,473.20
2017,06,01,15,55,440.30
2017,06,01,15,56,425.70
2017,06,01,15,57,425.00
2017,06,01,15,58,422.10
2017,06,01,15,59,406.80
2017,06,01,16,00,465.80
2017,06,01,16,01,513.00
2017,06,01,16,02,503.90
2017,06,01,16,03,487.00
2017,06,01,16,04,487.00
2017,06,01,16,05,472.70
2017,06,01,16,06,461.00
2017,06,01,16,07,461.00
2017,06,01,16,08,461.00
2017,06,01,16,09,414.60
2017,06,01,16,10,445.30
2017,06,01,16,11,474.70
2017,06,01,16,12,476.00
2017,06,01,16,13,476.00
2017,06,01,16,14,476.00
2017,06,01,16,15,476.00
2017,06,01,16,16,476.00
2017,06,01,16,17,476.00
2017,06,01,16,18,425.60
2017,06,01,16,19,364.00
2017,06,01,16,20,364.00
2017,06,01,16,21,364.00
2017,06,01,16,22,277.90
2017,06,01,16,23,228.40
2017,06,01,16,24,213.80
2017,06,01,16,25,204.70
2017,06,01,16,26,199.20
2017,06,01,16,27,192.70
2017,06,01,16,28,190.40
2017,06,01,16,29,195.20
2017,06,01,16,30,205.30
2017,06,01,16,31,209.00
2017,06,01,16,32,231.00
2017,06,01,16,33,264.00
2017,06,01,16,34,264.00
2017,06,01,16,35,264.00
2017,06,01,16,36,276.40
2017,06,01,16,37,274.60
2017,06,01,16,38,252.20
2017,06,01,16,39,238.00
2017,06,01,16,40,236.00
2017,06,01,16,41,236.00
2017,06,01,16,42,246.40
2017,06,01,16,43,253.00
2017,06,01,16,44,254.80
2017,06,01,16,45,262.00
2017,06,01,16,46,273.70
2017,06,01,16,47,301.00
2017,06,01,16,48,301.00
2017,06,01,16,49,308.00
2017,06,01,16,50,284.80
2017,06,01,16,51,250.40
2017,06,01,16,52,248.90
2017,06,01,16,53,245.00
2017,06,01,16,54,235.80
2017,06,01,16,55,257.30
2017,06,01,16,56,230.60
2017,06,01,16,57,226.40
2017,06,01,16,58,175.30
2017,06,01,16,59,169.00
2017,06,01,17,00,170.80
2017,06,01,17,01,173.60
2017,06,01,17,02,162.60
2017,06,01,17,03,153.00
2017,06,01,17,04,153.00
2017,06,01,17,05,153.00
2017,06,01,17,06,153.00
2017,06,01,17,07,154.40
2017,06,01,17,08,162.50